Milk River, Alberta

8:33 PM MDT on May 23, 2018 (GMT -0600)
Milk River

Weather History for 71244 - December, 2013

Change the Weather History Date:

Friday, December 27, 2013

  Actual Average Record
Temperature  
Mean Temperature 34 °F -  
Max Temperature 48 °F - - ()
Min Temperature 20 °F - - ()
Degree Days  
Heating Degree Days 31    
Moisture  
Dew Point 27 °F    
Average Humidity 58    
Maximum Humidity 91    
Minimum Humidity 35    
Precipitation  
Precipitation 0.39 in - - ()
Sea Level Pressure  
Sea Level Pressure 29.88 in    
Wind  
Wind Speed 19 mph ()    
Max Wind Speed 39 mph    
Max Gust Speed 48 mph    
T = Trace of Precipitation, MM = Missing Value Source: Averaged Metar Reports

Daily Weather History Graph

Daily Weather History Graph

Search for Another Location

Airport or City:

Astronomy

Dec. 27, 2013 Rise Set
Actual Time 8:22 AM MST 4:36 PM MST
Civil Twilight 7:44 AM MST 5:14 PM MST
Nautical Twilight 7:04 AM MST 5:54 PM MST
Astronomical Twilight 6:25 AM MST 6:33 PM MST
Moon 2:40 AM MST (12/27) 1:05 PM MST (12/27)
Length of Visible Light 9h 29m
Length of Day
8h 14m
Waning Crescent, 28% of the Moon is Illuminated
Dec 27
Waning Crescent
Jan 1
New
Jan 7
First Quarter
Jan 15
Full
Jan 23
Last Quarter

Hourly Weather History & Observations

Time (MST) Temp. Windchill Dew Point Humidity Pressure Visibility Wind Dir Wind Speed Gust Speed Precip Events Conditions
12:00 AM 41.2 °F 31.9 °F 30.6 °F 66% 29.94 in - West 20.7 mph 26.5 mph N/A   Unknown
1:00 AM 41.7 °F 31.0 °F 29.8 °F 63% 29.93 in - West 28.8 mph 36.8 mph N/A   Unknown
2:00 AM 40.1 °F 32.0 °F 29.3 °F 65% 29.96 in - WSW 15.0 mph - N/A   Unknown
3:00 AM 42.6 °F 33.8 °F 28.4 °F 57% 29.95 in - West 20.7 mph 26.5 mph N/A   Unknown
4:00 AM 41.4 °F 30.7 °F 28.2 °F 60% 29.94 in - West 27.6 mph 39.1 mph N/A   Unknown
5:00 AM 43 °F - 27 °F 41% 29.92 in - West 34.5 mph - -  
5:00 AM 43.2 °F 32.1 °F 27.3 °F 54% 29.92 in - West 34.5 mph 46.0 mph N/A   Unknown
6:00 AM 43.9 °F 35.0 °F 26.6 °F 51% 29.95 in - West 23.0 mph 29.9 mph N/A   Unknown
7:00 AM 41.9 °F 34.6 °F 26.6 °F 55% 29.95 in - West 13.8 mph 19.6 mph N/A   Unknown
8:00 AM 37.2 °F 30.0 °F 27.1 °F 67% 30.00 in - SW 10.4 mph - N/A   Unknown
9:00 AM 37.8 °F 29.4 °F 29.3 °F 72% 29.97 in - WSW 13.8 mph - N/A   Unknown
10:00 AM 39.6 °F 35.4 °F 29.3 °F 67% 29.99 in - SSW 5.8 mph - N/A   Unknown
11:00 AM 45 °F - 28 °F 38% 29.95 in - WSW 8.1 mph - -  
11:00 AM 44.6 °F 40.2 °F 29.3 °F 55% 29.95 in - WSW 8.1 mph - N/A   Unknown
12:00 PM 43.3 °F 39.2 °F 27.9 °F 54% 29.92 in - SSW 6.9 mph - N/A   Unknown
1:00 PM 48.0 °F - 24.8 °F 40% 29.87 in - WSW 13.8 mph 20.7 mph N/A   Unknown
2:00 PM 48.7 °F - 25.3 °F 40% 29.83 in - SSW 10.4 mph - N/A   Unknown
3:00 PM 46.2 °F 40.1 °F 26.6 °F 46% 29.81 in - WSW 13.8 mph - N/A   Unknown
4:00 PM 46.2 °F 39.8 °F 25.3 °F 44% 29.79 in - West 15.0 mph - N/A   Unknown
5:00 PM 44 °F - 26 °F 35% 29.78 in - WSW 17.3 mph - -  
5:00 PM 44.2 °F 36.7 °F 25.5 °F 48% 29.78 in - WSW 17.3 mph - N/A   Unknown
6:00 PM 42.6 °F 33.8 °F 26.6 °F 53% 29.75 in - West 20.7 mph 27.6 mph N/A   Unknown
7:00 PM 43.2 °F 33.6 °F 25.3 °F 49% 29.72 in - West 25.3 mph 31.1 mph N/A   Unknown
8:00 PM 40.6 °F 29.4 °F 29.1 °F 64% 29.73 in - West 29.9 mph 36.8 mph N/A   Unknown
9:00 PM 38.1 °F 25.7 °F 30.6 °F 74% 29.70 in - West 31.1 mph 42.6 mph N/A   Unknown
10:00 PM 38.5 °F 25.8 °F 30.6 °F 73% 29.72 in - West 33.4 mph 43.7 mph N/A   Unknown
11:00 PM 20 °F - 18 °F 89% 29.93 in - North 39.1 mph - -  
11:00 PM 20.5 °F -0.1 °F 18.1 °F 91% 29.93 in - North 39.1 mph 48.3 mph N/A   Unknown